Regional Weather Roundup
Issued by NWS

Home | Current Version | Previous Version | Text Only | Print | Product List | Glossary Off
Versions: 1 2 3 4 5 6 7 8 9 10 11 12 13 14 15 16 17 18 19 20 21 22 23 24 25 26 27 28 29 30 31 32 33 34 35 36 37 38 39 40 41 42 43 44 45 46 47 48 49 50

000
ASUS45 KTFX 291219
RWRMT
MONTANA HOURLY WEATHER ROUNDUP
NATIONAL WEATHER SERVICE GREAT FALLS MT
619 AM MDT FRI AUG 29 2014

NOTE: "FAIR" INDICATES FEW OR NO CLOUDS BELOW 12000 FEET WITH NO
SIGNIFICANT WEATHER AND/OR OBSTRUCTIONS TO VISIBILITY.

* THESE STATIONS ARE NOT UNDER NWS QUALITY CONTROL. THEY DO NOT
   REPORT WEATHER SUCH AS PRECIPITATION OR FOG.

MTZ001>007-043-291300-
WEST OF THE DIVIDE
CITY           SKY/WX    TMP DP  RH WIND       PRES   REMARKS
KALISPELL      CLEAR     48  48 100 W3        30.02S
MISSOULA       PTCLDY    50  43  77 CALM      30.06R
BUTTE          CLEAR     45  37  74 SE6       30.15S
MULLAN PASS    CLEAR     52  37  57 S5        30.11F
* LINCOLN      N/A       42  41  96 NE2        N/A
* LOOKOUT PASS N/A       49  41  74 E1         N/A
* POLSON       N/A       52  50  93 N/A        N/A
* RONAN APT    CLEAR     48  41  77 N/A        N/A
* SEELEY LAKE  N/A       39  37  93 N2         N/A
* THOMP F APT  CLEAR     55  42  62 N4G9       N/A
$$

MTZ008-052>055-291300-
SOUTHWEST MONTANA
CITY           SKY/WX    TMP DP  RH WIND       PRES   REMARKS
BOZEMAN        CLEAR     52  46  80 S6        30.11R
DILLON         CLEAR     55  43  64 E3        30.11S
W YELLOWSTONE  FOG       39  39 100 CALM      30.22S VSB 2
* THREE FORKS  CLEAR     54  36  51 N/A        N/A
* BOULDER HILL N/A       47  43  86 S4         N/A
* MONIDA PASS  N/A       43  43 100 NE2        N/A
* RAYNOLDS PAS N/A       45  17  32 NE1        N/A
* WHITEHALL    N/A       53  47  80 N7         N/A
* WISE RIVER   N/A       46  36  68 SE3        N/A
$$

MTZ009>010-012-014-046-048-049-054-291300-
EAST SLOPES AND CENTRAL MONTANA
CITY           SKY/WX    TMP DP  RH WIND       PRES   REMARKS
CUT BANK       MOCLDY    46  46 100 E5        30.07F
GREAT FALLS    CLEAR     48  46  93 CALM      30.07F
HELENA         CLEAR     52  46  80 CALM      30.09F
MALMSTROM AFB  CLEAR     46  46 100 SE5       30.10S
* CONRAD       CLEAR     43  43 100 N/A        N/A
* EAST GLACIER N/A       44  44 100 NW1        N/A
* MONARCH      N/A       48  42  80 E2G9       N/A
* PENDROY      N/A       43  43 100 W2         N/A
* ROGERS PASS  N/A       49  45  86 E4         N/A
* SAINT MARY   N/A       44  44 100 SE3        N/A
* SWEET GRASS  N/A       49  49 100 SE8        N/A
* WHITE SULPH  N/A       46  44  93 S4         N/A
$$

MTZ011-013-016-021-035-040-045-047-050-051-291300-
NORTH CENTRAL MONTANA
CITY           SKY/WX    TMP DP  RH WIND       PRES   REMARKS
HAVRE          CLOUDY    54  50  86 NW8       30.08R
LEWISTOWN      CLEAR     50  46  86 S5        30.10S
* CHINOOK      CLEAR     55  54  96 W3        30.08R
* FORT BENTON  CLEAR     54  48  80 NE5       30.09F
* CHESTER      N/A       50  46  86 E1         N/A
* DENTON       N/A       51  49  93 N7         N/A
* GEYSER       N/A       47  46  96 S6         N/A
* JUDITH GAP   N/A       48  47  96 N4         N/A
* LOMA         N/A       53  49  86 NE5        N/A
$$

MTZ017>020-022>027-061-062-291300-
NORTHEAST MONTANA
CITY           SKY/WX    TMP DP  RH WIND       PRES   REMARKS
GLASGOW        CLOUDY    55  54  96 NW10      30.01R
GLENDIVE       CLOUDY    57  57 100 E6        29.95F
JORDAN         CLOUDY    57  55  93 NW13      30.03R
SIDNEY         CLOUDY    59  57  93 CALM      29.95R
WOLF POINT     CLOUDY    57  54  90 SW5       29.98R
* BEAVER HILL  N/A       60  54  81 NW10G24    N/A
* CIRCLE       N/A       59  58  97 W9         N/A
* LINDSAY DVD  N/A       56  55  96 NW6        N/A
* NAVAJO       N/A       55  52  90 N13        N/A
$$

MTZ028>042-056>058-291300-
SOUTHCENTRAL AND SOUTHEAST MONTANA
CITY           SKY/WX    TMP DP  RH WIND       PRES   REMARKS
BAKER          CLOUDY    61  54  78 NW14      30.00R
BILLINGS       MOCLDY    55  50  83 W3        30.10R
LIVINGSTON     FAIR      52  48  86 E8        30.12S
MILES CITY     CLOUDY    63  54  73 NW6       30.00R
* LAUREL APT   PTCLDY    55  46  72 N/A        N/A
* ROUNDUP APT  PTCLDY    54  48  80 N/A        N/A
* ALZADA       N/A       63  52  68 W10        N/A
* HYSHAM       N/A       57  53  87 NW6        N/A
* LAME DEER    N/A       56  56 100 NW8G13     N/A
* REED POINT   N/A       57  51  80 SW2        N/A
* ROSCOE HILL  N/A       54  47  77 N/A        N/A
$$

REGIONAL REPORTS...DAKOTAS
CITY           SKY/WX    TMP DP  RH WIND       PRES   REMARKS
WILLISTON      MOCLDY    61  55  81 NW10      29.91R
DICKINSON      MOCLDY    61  55  81 NW7       29.88R
BEACH          LGT RAIN  57  57 100 NW10      29.99R
CROSBY         CLEAR     55  55 100 NW12      29.91R
TIOGA          CLEAR     57  57 100 N10       29.91R
WATFORD CITY   MOCLDY    59  55  87 W9        29.89R
BISMARCK       FOG       64  63  97 W7        29.82R VSB 3
GRAND FORKS    CLOUDY    66  64  93 SW5       29.76F
FARGO          FOG       66  64  93 S3        29.77S VSB 3/4
BUFFALO SD     MOCLDY    63  55  75 N21       29.87R
RAPID CITY     CLEAR     61  48  62 NW8       29.90R
$$

REGIONAL REPORTS...WYOMING/IDAHO/WASHINGTON
CITY           SKY/WX    TMP DP  RH WIND       PRES   REMARKS
GILLETTE       CLOUDY    59  52  78 NW10      30.06R
SHERIDAN       CLOUDY    57  54  90 W8        30.06R
CODY           CLOUDY    57  48  72 NW6       30.14R
YELLOWSTONE LA PTCLDY    43  41  93 CALM      30.30S
SALMON         CLEAR     48  45  89 CALM      30.08R
MULLAN PASS    CLEAR     52  37  57 S5        30.11S
SAND POINT     PTCLDY    48  48 100 CALM      29.96S
SPOKANE        MOCLDY    57  43  60 S7        29.94S
$$

REGIONAL REPORTS...ALBERTA
CITY           SKY/WX    TMP DP  RH WIND       PRES   REMARKS
CALGARY        FAIR      43  39  86 S5        30.00F
LETHBRIDGE     PTCLDY    48  46  93 SE6       30.04F
MEDICINE HAT   FOG       50  50 100 S8        30.07S VSB 2 1/2
EDMONTON       PTCLDY    41  39  93 S9        29.95S
WATERTON GATE  N/A       41  41 100 CALM       N/A
CARDSTON       N/A       41  41 100 S2         N/A
$$

REGIONAL REPORTS...SASKATCHEWAN
CITY           SKY/WX    TMP DP  RH WIND       PRES   REMARKS
SWIFT CURRENT  FOG       50  50 100 W7        30.04R
MOOSE JAW      MOCLDY    54  54 100 NW7       30.00R
VAL MARIE      N/A       54  50  86 N7         N/A
ASSINIBOIA     N/A       55  52  90 W7         N/A

$$



USA.gov is the U.S. government's official web portal to all federal, state and local government web resources and services.